time, Switch, Flow(0), Analog(2)
yyyy/mm/dd HH:MM:SS.fff, True=FILTERED|False=TOTAL, L/min, V
2023/06/11 07:00:01.837, True, 4.974, 0.138247
2023/06/11 07:00:02.340, True, 4.642, 0.142443
2023/06/11 07:00:02.837, True, 4.717, 0.141222
2023/06/11 07:00:03.341, True, 4.642, 0.139544
2023/06/11 07:00:03.845, True, 3.979, 0.139773
2023/06/11 07:00:04.341, True, 2.361, 0.139620
2023/06/11 07:00:04.845, True, 1.325, 0.140536
2023/06/11 07:00:05.349, True, 0.995, 0.139925
2023/06/11 07:00:05.845, True, 0.674, 0.139773
2023/06/11 07:00:06.349, True, 0.663, 0.138628
2023/06/11 07:00:06.852, True, 0.663, 0.140841
2023/06/11 07:00:07.357, True, 0.996, 0.141299
2023/06/11 07:00:07.853, True, 0.673, 0.140993
2023/06/11 07:00:08.356, True, 0.663, 0.138628
2023/06/11 07:00:08.861, True, 0.663, 0.139773
2023/06/11 07:00:09.357, True, 0.674, 0.140230
2023/06/11 07:00:09.861, True, 0.663, 0.140536
2023/06/11 07:00:10.365, True, 0.663, 0.139239
2023/06/11 07:00:10.861, True, 0.674, 0.141222
2023/06/11 07:00:11.365, True, 0.663, 0.143282
2023/06/11 07:00:11.868, True, 0.663, 0.138552
2023/06/11 07:00:12.373, True, 0.663, 0.140841
2023/06/11 07:00:12.869, True, 0.674, 0.141299
2023/06/11 07:00:13.372, True, 0.663, 0.140383
2023/06/11 07:00:13.877, True, 0.663, 0.139239
2023/06/11 07:00:14.373, True, 0.674, 0.138552
2023/06/11 07:00:14.877, True, 0.664, 0.139086
2023/06/11 07:00:15.381, True, 0.662, 0.141680
2023/06/11 07:00:15.876, True, 0.674, 0.141299
2023/06/11 07:00:16.381, True, 0.663, 0.142443
2023/06/11 07:00:16.885, True, 0.663, 0.140078
2023/06/11 07:00:17.381, True, 0.674, 0.138933
2023/06/11 07:00:17.885, True, 0.664, 0.140383
2023/06/11 07:00:18.389, True, 0.662, 0.140612
2023/06/11 07:00:18.885, True, 0.674, 0.141527
2023/06/11 07:00:19.389, True, 0.663, 0.144198
2023/06/11 07:00:19.885, True, 0.674, 0.139620
2023/06/11 07:00:20.389, True, 0.663, 0.140459
2023/06/11 07:00:20.893, True, 0.663, 0.139467
2023/06/11 07:00:21.389, True, 0.675, 0.140993
2023/06/11 07:00:21.893, True, 0.663, 0.140383
2023/06/11 07:00:22.397, True, 0.662, 0.138552
2023/06/11 07:00:22.901, True, 0.663, 0.140307
2023/06/11 07:00:23.397, True, 0.675, 0.140841
2023/06/11 07:00:23.901, True, 0.663, 0.138018
2023/06/11 07:00:24.405, True, 0.663, 0.141146
2023/06/11 07:00:24.909, True, 0.663, 0.139239
2023/06/11 07:00:25.405, True, 0.674, 0.140536
2023/06/11 07:00:25.909, True, 0.663, 0.139925
2023/06/11 07:00:26.413, True, 0.663, 0.139239
2023/06/11 07:00:26.909, True, 0.674, 0.140688
2023/06/11 07:00:27.413, True, 0.663, 0.139773
2023/06/11 07:00:27.916, True, 0.663, 0.137865
2023/06/11 07:00:28.413, True, 0.674, 0.139315
2023/06/11 07:00:28.917, True, 0.663, 0.139315
2023/06/11 07:00:29.421, True, 0.663, 0.139544
2023/06/11 07:00:29.917, True, 0.675, 0.139010
2023/06/11 07:00:30.421, True, 0.663, 0.140307
2023/06/11 07:00:30.925, True, 0.662, 0.141985
2023/06/11 07:00:31.421, True, 0.674, 0.141070
2023/06/11 07:00:31.925, True, 0.663, 0.141375
2023/06/11 07:00:32.429, True, 0.663, 0.141146
2023/06/11 07:00:32.925, True, 0.674, 0.140078
2023/06/11 07:00:33.428, True, 0.663, 0.140459
2023/06/11 07:00:33.932, True, 0.663, 0.139162
2023/06/11 07:00:34.429, True, 0.675, 0.138476
2023/06/11 07:00:34.933, True, 0.662, 0.139086
2023/06/11 07:00:35.437, True, 0.663, 0.140917
2023/06/11 07:00:35.933, True, 0.674, 0.140459
2023/06/11 07:00:36.437, True, 0.663, 0.140688
2023/06/11 07:00:36.941, True, 0.663, 0.140307
2023/06/11 07:00:37.437, True, 0.674, 0.139620
2023/06/11 07:00:37.941, True, 0.664, 0.138476
2023/06/11 07:00:38.445, True, 0.662, 0.138857
2023/06/11 07:00:38.941, True, 0.674, 0.138552
2023/06/11 07:00:39.445, True, 0.663, 0.139620
2023/06/11 07:00:39.949, True, 0.663, 0.140459
2023/06/11 07:00:40.444, True, 0.674, 0.136416
2023/06/11 07:00:40.949, True, 0.663, 0.138933
2023/06/11 07:00:41.453, True, 0.664, 0.139544
2023/06/11 07:00:41.949, True, 0.672, 0.138247
2023/06/11 07:00:42.453, True, 0.663, 0.140230
2023/06/11 07:00:42.957, True, 0.663, 0.139315
2023/06/11 07:00:43.452, True, 0.675, 0.141451
2023/06/11 07:00:43.957, True, 0.663, 0.139544
2023/06/11 07:00:44.461, True, 0.663, 0.140612
2023/06/11 07:00:44.957, True, 0.674, 0.140002
2023/06/11 07:00:45.461, True, 0.663, 0.139620
2023/06/11 07:00:45.965, True, 0.663, 0.138857
2023/06/11 07:00:46.469, True, 0.663, 0.141070
2023/06/11 07:00:46.965, True, 0.674, 0.140383
2023/06/11 07:00:47.469, True, 0.663, 0.138857
2023/06/11 07:00:47.972, True, 0.663, 0.139391
2023/06/11 07:00:48.469, True, 0.337, 0.139773
2023/06/11 07:00:48.973, True, 0.663, 0.140459
2023/06/11 07:00:49.477, True, 0.663, 0.139086
2023/06/11 07:00:49.973, True, 0.674, 0.140917
2023/06/11 07:00:50.477, True, 0.663, 0.140078
2023/06/11 07:00:50.980, True, 0.663, 0.140230
2023/06/11 07:00:51.485, True, 0.663, 0.139773
2023/06/11 07:00:51.981, True, 0.674, 0.140459
2023/06/11 07:00:52.485, True, 0.663, 0.140917
2023/06/11 07:00:52.989, True, 0.663, 0.139925
2023/06/11 07:00:53.485, True, 0.675, 0.139162
2023/06/11 07:00:53.989, True, 0.662, 0.140612
2023/06/11 07:00:54.493, True, 0.663, 0.141222
2023/06/11 07:00:54.989, True, 0.675, 0.139544
2023/06/11 07:00:55.493, True, 0.662, 0.139239
2023/06/11 07:00:55.997, True, 0.663, 0.141146
2023/06/11 07:00:56.501, True, 0.663, 0.140612
2023/06/11 07:00:56.997, True, 0.674, 0.138323
2023/06/11 07:00:57.501, True, 0.663, 0.140688
2023/06/11 07:00:57.997, True, 0.674, 0.140764
2023/06/11 07:00:58.501, True, 0.663, 0.138857
2023/06/11 07:00:59.005, True, 0.663, 0.139620
2023/06/11 07:00:59.501, True, 0.674, 0.138476
2023/06/11 07:01:00.005, True, 0.664, 0.138857
2023/06/11 07:01:00.509, True, 0.663, 0.139239
2023/06/11 07:01:01.005, True, 0.674, 0.139010
2023/06/11 07:01:01.509, True, 0.663, 0.139315
2023/06/11 07:01:02.013, True, 0.664, 0.141909
2023/06/11 07:01:02.509, True, 0.673, 0.141680
2023/06/11 07:01:03.013, True, 0.663, 0.140459
2023/06/11 07:01:03.517, True, 0.663, 0.137942
2023/06/11 07:01:04.013, True, 0.674, 0.139773
2023/06/11 07:01:04.517, True, 0.663, 0.140383
2023/06/11 07:01:05.021, True, 0.663, 0.138399
2023/06/11 07:01:05.517, True, 0.674, 0.140459
2023/06/11 07:01:06.021, True, 0.663, 0.141375
2023/06/11 07:01:06.517, True, 0.674, 0.140993
2023/06/11 07:01:07.021, True, 0.663, 0.138628
2023/06/11 07:01:07.525, True, 0.663, 0.139620
2023/06/11 07:01:08.021, True, 0.674, 0.140307
2023/06/11 07:01:08.525, True, 0.663, 0.140459
2023/06/11 07:01:09.028, True, 0.663, 0.138323
2023/06/11 07:01:09.525, True, 0.674, 0.138705
2023/06/11 07:01:10.028, True, 0.332, 0.141146
2023/06/11 07:01:10.533, True, 0.663, 0.139467
2023/06/11 07:01:11.028, True, 0.674, 0.141909
2023/06/11 07:01:11.533, True, 0.664, 0.137255
2023/06/11 07:01:12.037, True, 0.663, 0.140383
2023/06/11 07:01:12.533, True, 0.674, 0.139773
2023/06/11 07:01:13.036, True, 0.663, 0.138476
2023/06/11 07:01:13.541, True, 0.664, 0.140383
2023/06/11 07:01:14.037, True, 0.674, 0.140002
2023/06/11 07:01:14.541, True, 0.663, 0.140459
2023/06/11 07:01:15.045, True, 0.664, 0.139773
2023/06/11 07:01:15.541, True, 0.674, 0.140154
2023/06/11 07:01:16.045, True, 0.663, 0.141527
2023/06/11 07:01:16.549, True, 0.664, 0.139010
2023/06/11 07:01:17.045, True, 0.673, 0.139239
2023/06/11 07:01:17.548, True, 0.663, 0.141375
2023/06/11 07:01:18.044, True, 0.674, 0.141299
2023/06/11 07:01:18.548, True, 0.664, 0.138247
2023/06/11 07:01:19.052, True, 0.663, 0.141833
2023/06/11 07:01:19.548, True, 0.674, 0.143816
2023/06/11 07:01:20.053, True, 0.663, 0.139315
2023/06/11 07:01:20.556, True, 0.663, 0.141985
2023/06/11 07:01:21.052, True, 0.674, 0.138857
2023/06/11 07:01:21.557, True, 0.664, 0.140993
2023/06/11 07:01:22.060, True, 0.662, 0.140230
2023/06/11 07:01:22.557, True, 0.674, 0.139239
2023/06/11 07:01:23.061, True, 0.664, 0.140612
2023/06/11 07:01:23.565, True, 0.662, 0.141070
2023/06/11 07:01:24.060, True, 0.674, 0.140230
2023/06/11 07:01:24.565, True, 0.663, 0.140612
2023/06/11 07:01:25.069, True, 0.664, 0.141833
2023/06/11 07:01:25.564, True, 0.674, 0.141451
2023/06/11 07:01:26.069, True, 0.663, 0.142443
2023/06/11 07:01:26.572, True, 0.663, 0.142214
2023/06/11 07:01:27.077, True, 0.663, 0.144732
2023/06/11 07:01:27.572, True, 0.674, 0.142672
2023/06/11 07:01:28.077, True, 0.663, 0.145037
2023/06/11 07:01:28.581, True, 0.663, 0.144427
2023/06/11 07:01:29.077, True, 0.674, 0.142214
2023/06/11 07:01:29.581, True, 0.663, 0.142596
2023/06/11 07:01:30.085, True, 0.663, 0.143206
2023/06/11 07:01:30.581, True, 0.674, 0.145495
2023/06/11 07:01:31.085, True, 0.663, 0.144579
2023/06/11 07:01:31.589, True, 0.663, 0.146029
2023/06/11 07:01:32.085, True, 0.674, 0.145953
2023/06/11 07:01:32.589, True, 0.663, 0.143740
2023/06/11 07:01:33.093, True, 0.664, 0.146868
2023/06/11 07:01:33.589, True, 0.337, 0.147707
2023/06/11 07:01:34.093, True, 0.663, 0.148699
2023/06/11 07:01:34.597, True, 0.663, 0.146181
2023/06/11 07:01:35.093, True, 0.674, 0.146105
2023/06/11 07:01:35.597, True, 0.995, 0.147860
2023/06/11 07:01:36.101, True, 0.332, 0.146792
2023/06/11 07:01:36.596, True, 1.011, 0.148852
2023/06/11 07:01:37.100, True, 0.663, 0.150378
2023/06/11 07:01:37.604, True, 0.332, 0.152743
2023/06/11 07:01:38.108, True, 0.663, 0.145037
2023/06/11 07:01:38.604, True, 0.674, 0.148852
2023/06/11 07:01:39.108, True, 0.663, 0.147784
2023/06/11 07:01:39.613, True, 0.664, 0.147173
2023/06/11 07:01:40.108, True, 0.673, 0.148775
2023/06/11 07:01:40.612, True, 0.663, 0.147326
2023/06/11 07:01:41.116, True, 0.664, 0.148394
2023/06/11 07:01:41.613, True, 0.673, 0.150301
2023/06/11 07:01:42.116, True, 0.663, 0.150835
2023/06/11 07:01:42.612, True, 0.675, 0.148852
2023/06/11 07:01:43.116, True, 0.662, 0.149310
2023/06/11 07:01:43.621, True, 0.663, 0.149844
2023/06/11 07:01:44.117, True, 0.674, 0.150988
2023/06/11 07:01:44.621, True, 0.663, 0.149996
2023/06/11 07:01:45.125, True, 0.332, 0.152590
2023/06/11 07:01:45.621, True, 0.674, 0.149996
2023/06/11 07:01:46.125, True, 0.663, 0.150072
2023/06/11 07:01:46.629, True, 0.664, 0.151446
2023/06/11 07:01:47.125, True, 0.673, 0.150530
2023/06/11 07:01:47.629, True, 0.663, 0.151751
2023/06/11 07:01:48.124, True, 0.674, 0.150988
2023/06/11 07:01:48.629, True, 0.663, 0.151141
2023/06/11 07:01:49.132, True, 0.664, 0.149157
2023/06/11 07:01:49.628, True, 0.673, 0.151904
2023/06/11 07:01:50.132, True, 0.663, 0.150530
2023/06/11 07:01:50.637, True, 0.664, 0.150683
2023/06/11 07:01:51.141, True, 0.663, 0.151064
2023/06/11 07:01:51.644, True, 0.663, 0.152361
2023/06/11 07:01:52.140, True, 0.675, 0.151980
2023/06/11 07:01:52.645, True, 0.332, 0.153887
2023/06/11 07:01:53.149, True, 0.662, 0.149996
2023/06/11 07:01:53.644, True, 0.675, 0.153353
2023/06/11 07:01:54.149, True, 0.663, 0.153353
2023/06/11 07:01:54.653, True, 0.662, 0.151980
2023/06/11 07:01:55.149, True, 0.675, 0.153964
2023/06/11 07:01:55.652, True, 0.663, 0.152056
2023/06/11 07:01:56.157, True, 0.662, 0.154192
2023/06/11 07:01:56.653, True, 0.675, 0.153887
2023/06/11 07:01:57.157, True, 0.663, 0.152361
2023/06/11 07:01:57.661, True, 0.662, 0.152667
2023/06/11 07:01:58.165, True, 0.663, 0.152819
2023/06/11 07:01:58.661, True, 0.337, 0.155261
2023/06/11 07:01:59.165, True, 0.664, 0.153582
2023/06/11 07:01:59.669, True, 0.662, 0.153429
2023/06/11 07:02:00.165, True, 0.674, 0.152209
2023/06/11 07:02:00.669, True, 0.663, 0.152590
2023/06/11 07:02:01.173, True, 0.664, 0.153429
2023/06/11 07:02:01.669, True, 0.673, 0.155108
2023/06/11 07:02:02.173, True, 0.663, 0.153048
2023/06/11 07:02:02.669, True, 0.674, 0.152438
2023/06/11 07:02:03.173, True, 0.663, 0.152285
2023/06/11 07:02:03.677, True, 0.663, 0.155795
2023/06/11 07:02:04.173, True, 0.674, 0.156100
2023/06/11 07:02:04.677, True, 0.663, 0.152056
2023/06/11 07:02:05.181, True, 0.663, 0.154803
2023/06/11 07:02:05.677, True, 0.674, 0.155642
2023/06/11 07:02:06.181, True, 0.663, 0.155184
2023/06/11 07:02:06.685, True, 0.663, 0.155337
2023/06/11 07:02:07.181, True, 0.674, 0.154345
2023/06/11 07:02:07.685, True, 0.663, 0.153735
2023/06/11 07:02:08.189, True, 0.663, 0.153735
2023/06/11 07:02:08.685, True, 0.674, 0.154116
2023/06/11 07:02:09.189, True, 0.664, 0.154192
2023/06/11 07:02:09.693, True, 0.663, 0.153964
2023/06/11 07:02:10.189, True, 0.673, 0.157321
2023/06/11 07:02:10.693, True, 0.663, 0.156252
2023/06/11 07:02:11.197, True, 0.663, 0.155337
2023/06/11 07:02:11.693, True, 0.675, 0.153429
2023/06/11 07:02:12.197, True, 0.331, 0.156252
2023/06/11 07:02:12.701, True, 0.663, 0.155947
2023/06/11 07:02:13.197, True, 0.674, 0.154955
2023/06/11 07:02:13.701, True, 0.663, 0.154269
2023/06/11 07:02:14.197, True, 0.674, 0.155184
2023/06/11 07:02:14.701, True, 0.663, 0.153048
2023/06/11 07:02:15.205, True, 0.663, 0.156252
2023/06/11 07:02:15.701, True, 0.674, 0.155642
2023/06/11 07:02:16.205, True, 0.663, 0.156710
2023/06/11 07:02:16.709, True, 0.664, 0.154345
2023/06/11 07:02:17.205, True, 0.673, 0.156023
2023/06/11 07:02:17.709, True, 0.663, 0.156023
2023/06/11 07:02:18.212, True, 0.663, 0.155413
2023/06/11 07:02:18.709, True, 0.674, 0.155871
2023/06/11 07:02:19.213, True, 0.663, 0.155184
2023/06/11 07:02:19.717, True, 0.663, 0.154879
2023/06/11 07:02:20.213, True, 0.674, 0.154955
2023/06/11 07:02:20.717, True, 0.663, 0.153735
2023/06/11 07:02:21.221, True, 0.331, 0.156710
2023/06/11 07:02:21.717, True, 0.674, 0.157473
2023/06/11 07:02:22.221, True, 0.663, 0.155184
2023/06/11 07:02:22.725, True, 0.663, 0.155947
2023/06/11 07:02:23.220, True, 0.674, 0.154726
2023/06/11 07:02:23.725, True, 0.663, 0.155108
2023/06/11 07:02:24.229, True, 0.663, 0.153735
2023/06/11 07:02:24.725, True, 0.674, 0.156481
2023/06/11 07:02:25.229, True, 0.663, 0.158236
2023/06/11 07:02:25.733, True, 0.663, 0.153658
2023/06/11 07:02:26.229, True, 0.674, 0.153582
2023/06/11 07:02:26.733, True, 0.663, 0.154879
2023/06/11 07:02:27.237, True, 0.663, 0.155337
2023/06/11 07:02:27.733, True, 0.674, 0.153658
2023/06/11 07:02:28.237, True, 0.332, 0.153658
2023/06/11 07:02:28.741, True, 0.663, 0.154726
2023/06/11 07:02:29.245, True, 0.663, 0.153811
2023/06/11 07:02:29.740, True, 0.674, 0.154803
2023/06/11 07:02:30.244, True, 0.663, 0.156863
2023/06/11 07:02:30.749, True, 0.663, 0.153811
2023/06/11 07:02:31.245, True, 0.674, 0.153353
2023/06/11 07:02:31.749, True, 0.663, 0.154498
2023/06/11 07:02:32.253, True, 0.663, 0.153582
2023/06/11 07:02:32.749, True, 0.675, 0.154574
2023/06/11 07:02:33.253, True, 0.331, 0.153887
2023/06/11 07:02:33.757, True, 0.663, 0.153735
2023/06/11 07:02:34.253, True, 0.674, 0.155337
2023/06/11 07:02:34.756, True, 0.664, 0.155795
2023/06/11 07:02:35.261, True, 0.663, 0.154421
2023/06/11 07:02:35.756, True, 0.674, 0.153277
2023/06/11 07:02:36.261, True, 0.663, 0.156100
2023/06/11 07:02:36.764, True, 0.664, 0.154345
2023/06/11 07:02:37.261, True, 0.673, 0.153887
2023/06/11 07:02:37.765, True, 0.663, 0.154803
2023/06/11 07:02:38.269, True, 0.663, 0.152667
2023/06/11 07:02:38.764, True, 0.674, 0.153964
2023/06/11 07:02:39.269, True, 0.663, 0.152819
2023/06/11 07:02:39.773, True, 0.331, 0.155261
2023/06/11 07:02:40.269, True, 0.674, 0.155108
2023/06/11 07:02:40.773, True, 0.663, 0.155261
2023/06/11 07:02:41.277, True, 0.664, 0.156939
2023/06/11 07:02:41.773, True, 0.674, 0.153964
2023/06/11 07:02:42.277, True, 0.663, 0.155108
2023/06/11 07:02:42.781, True, 0.663, 0.151293
2023/06/11 07:02:43.277, True, 0.674, 0.156252
2023/06/11 07:02:43.781, True, 0.663, 0.154192
2023/06/11 07:02:44.285, True, 0.663, 0.156558
2023/06/11 07:02:44.781, True, 0.674, 0.155184
2023/06/11 07:02:45.285, True, 0.663, 0.153124
2023/06/11 07:02:45.789, True, 0.332, 0.152895
2023/06/11 07:02:46.285, True, 0.674, 0.155261
2023/06/11 07:02:46.789, True, 0.663, 0.154879
2023/06/11 07:02:47.293, True, 0.663, 0.154345
2023/06/11 07:02:47.789, True, 0.674, 0.153429
2023/06/11 07:02:48.293, True, 0.663, 0.154421
2023/06/11 07:02:48.797, True, 0.663, 0.157092
2023/06/11 07:02:49.293, True, 0.674, 0.153124
2023/06/11 07:02:49.797, True, 0.663, 0.155413
2023/06/11 07:02:50.301, True, 0.332, 0.152361
2023/06/11 07:02:50.797, True, 0.673, 0.155032
2023/06/11 07:02:51.301, True, 0.664, 0.153811
2023/06/11 07:02:51.805, True, 0.663, 0.153506
2023/06/11 07:02:52.309, True, 0.663, 0.152514
2023/06/11 07:02:52.805, True, 0.674, 0.154269
2023/06/11 07:02:53.309, True, 0.663, 0.153964
2023/06/11 07:02:53.813, True, 0.663, 0.154498
2023/06/11 07:02:54.309, True, 0.674, 0.156176
2023/06/11 07:02:54.813, True, 0.663, 0.156634
2023/06/11 07:02:55.309, True, 0.674, 0.154650
2023/06/11 07:02:55.812, True, 0.663, 0.155413
2023/06/11 07:02:56.317, True, 0.663, 0.154879
2023/06/11 07:02:56.813, True, 0.337, 0.154650
2023/06/11 07:02:57.317, True, 0.664, 0.152972
2023/06/11 07:02:57.821, True, 0.663, 0.153658
2023/06/11 07:02:58.317, True, 0.674, 0.156481
2023/06/11 07:02:58.821, True, 0.663, 0.152743
2023/06/11 07:02:59.325, True, 0.663, 0.154574
2023/06/11 07:02:59.821, True, 0.674, 0.153124
2023/06/11 07:03:00.325, True, 0.663, 0.154345
2023/06/11 07:03:00.829, True, 0.663, 0.154192
2023/06/11 07:03:01.325, True, 0.674, 0.152132
2023/06/11 07:03:01.829, True, 0.663, 0.152972
2023/06/11 07:03:02.325, True, 0.674, 0.154726
2023/06/11 07:03:02.829, True, 0.332, 0.157244
2023/06/11 07:03:03.333, True, 0.663, 0.154498
2023/06/11 07:03:03.829, True, 0.674, 0.152819
2023/06/11 07:03:04.333, True, 0.663, 0.153353
2023/06/11 07:03:04.837, True, 0.663, 0.154116
2023/06/11 07:03:05.333, True, 0.674, 0.151369
2023/06/11 07:03:05.837, True, 0.663, 0.154955
2023/06/11 07:03:06.341, True, 0.663, 0.154879
2023/06/11 07:03:06.837, True, 0.674, 0.155337
2023/06/11 07:03:07.341, True, 0.664, 0.155261
2023/06/11 07:03:07.845, True, 0.663, 0.155032
2023/06/11 07:03:08.349, True, 0.663, 0.154498
2023/06/11 07:03:08.845, True, 0.674, 0.152667
2023/06/11 07:03:09.349, True, 0.663, 0.153658
2023/06/11 07:03:09.845, True, 0.674, 0.151446
2023/06/11 07:03:10.348, True, 0.663, 0.152819
2023/06/11 07:03:10.852, True, 0.663, 0.153582
2023/06/11 07:03:11.349, True, 0.674, 0.155261
2023/06/11 07:03:11.852, True, 0.663, 0.154498
2023/06/11 07:03:12.356, True, 0.663, 0.155184
2023/06/11 07:03:12.853, True, 0.674, 0.156252
2023/06/11 07:03:13.356, True, 0.332, 0.154879
2023/06/11 07:03:13.860, True, 0.663, 0.154879
2023/06/11 07:03:14.356, True, 0.674, 0.152514
2023/06/11 07:03:14.861, True, 0.663, 0.154498
2023/06/11 07:03:15.364, True, 0.663, 0.155108
2023/06/11 07:03:15.860, True, 0.674, 0.154803
2023/06/11 07:03:16.365, True, 0.663, 0.153582
2023/06/11 07:03:16.869, True, 0.663, 0.154040
2023/06/11 07:03:17.364, True, 0.675, 0.153658
2023/06/11 07:03:17.868, True, 0.663, 0.154955
2023/06/11 07:03:18.373, True, 0.663, 0.155642
2023/06/11 07:03:18.877, True, 0.663, 0.151827
2023/06/11 07:03:19.373, True, 0.674, 0.153658
2023/06/11 07:03:19.877, True, 0.664, 0.154879
2023/06/11 07:03:20.381, True, 0.663, 0.155947
2023/06/11 07:03:20.877, True, 0.674, 0.152972
2023/06/11 07:03:21.381, True, 0.664, 0.153429
2023/06/11 07:03:21.884, True, 0.663, 0.153582
2023/06/11 07:03:22.381, True, 0.337, 0.154192
2023/06/11 07:03:22.884, True, 0.662, 0.154116
2023/06/11 07:03:23.389, True, 0.663, 0.152819
2023/06/11 07:03:23.884, True, 0.675, 0.152514
2023/06/11 07:03:24.388, True, 0.662, 0.152667
2023/06/11 07:03:24.892, True, 0.663, 0.154345
2023/06/11 07:03:25.396, True, 0.663, 0.154116
2023/06/11 07:03:25.892, True, 0.674, 0.152209
2023/06/11 07:03:26.397, True, 0.663, 0.154269
2023/06/11 07:03:26.900, True, 0.663, 0.153353
2023/06/11 07:03:27.405, True, 0.663, 0.151827
2023/06/11 07:03:27.901, True, 0.675, 0.154803
2023/06/11 07:03:28.404, True, 0.663, 0.153277
2023/06/11 07:03:28.908, True, 0.663, 0.153811
2023/06/11 07:03:29.405, True, 0.337, 0.152743
2023/06/11 07:03:29.908, True, 0.663, 0.152590
2023/06/11 07:03:30.413, True, 0.663, 0.153887
2023/06/11 07:03:30.909, True, 0.675, 0.155489
2023/06/11 07:03:31.412, True, 0.662, 0.153735
2023/06/11 07:03:31.916, True, 0.663, 0.152590
2023/06/11 07:03:32.412, True, 0.674, 0.154803
2023/06/11 07:03:32.916, True, 0.663, 0.154116
2023/06/11 07:03:33.420, True, 0.663, 0.153964
2023/06/11 07:03:33.916, True, 0.674, 0.152361
2023/06/11 07:03:34.420, True, 0.663, 0.153811
2023/06/11 07:03:34.916, True, 0.674, 0.152895
2023/06/11 07:03:35.420, True, 0.663, 0.152819
2023/06/11 07:03:35.924, True, 0.663, 0.153964
2023/06/11 07:03:36.420, True, 0.674, 0.152667
2023/06/11 07:03:36.924, True, 0.663, 0.151980
2023/06/11 07:03:37.428, True, 0.663, 0.153735
2023/06/11 07:03:37.924, True, 0.337, 0.152132
2023/06/11 07:03:38.428, True, 0.663, 0.152361
2023/06/11 07:03:38.932, True, 0.663, 0.152972
2023/06/11 07:03:39.428, True, 0.674, 0.155032
2023/06/11 07:03:39.932, True, 0.663, 0.152209
2023/06/11 07:03:40.437, True, 0.664, 0.151675
2023/06/11 07:03:40.932, True, 0.673, 0.150759
2023/06/11 07:03:41.436, True, 0.663, 0.151064
2023/06/11 07:03:41.940, True, 0.663, 0.153048
2023/06/11 07:03:42.437, True, 0.674, 0.156405
2023/06/11 07:03:42.940, True, 0.663, 0.154879
2023/06/11 07:03:43.444, True, 0.663, 0.150759
2023/06/11 07:03:43.940, True, 0.674, 0.154650
2023/06/11 07:03:44.444, True, 0.332, 0.153201
2023/06/11 07:03:44.947, True, 0.663, 0.153353
2023/06/11 07:03:45.444, True, 0.674, 0.154955
2023/06/11 07:03:45.948, True, 0.663, 0.151598
2023/06/11 07:03:46.444, True, 0.674, 0.152590
2023/06/11 07:03:46.949, True, 0.663, 0.153124
2023/06/11 07:03:47.452, True, 0.663, 0.154192
2023/06/11 07:03:47.948, True, 0.674, 0.150683
2023/06/11 07:03:48.452, True, 0.332, 0.151141
2023/06/11 07:03:48.956, True, 0.663, 0.152438
2023/06/11 07:03:49.460, True, 0.663, 0.153582
2023/06/11 07:03:49.956, True, 0.674, 0.151141
2023/06/11 07:03:50.460, True, 0.663, 0.151141
2023/06/11 07:03:50.964, True, 0.663, 0.151980
2023/06/11 07:03:51.460, True, 0.675, 0.152056
2023/06/11 07:03:51.964, True, 0.331, 0.152667
2023/06/11 07:03:52.469, True, 0.663, 0.152361
2023/06/11 07:03:52.964, True, 0.674, 0.150988
2023/06/11 07:03:53.468, True, 0.663, 0.152438
2023/06/11 07:03:53.972, True, 0.663, 0.153658
2023/06/11 07:03:54.468, True, 0.674, 0.152972
2023/06/11 07:03:54.972, True, 0.663, 0.152361
2023/06/11 07:03:55.476, True, 0.663, 0.152285
2023/06/11 07:03:55.972, True, 0.337, 0.152132
2023/06/11 07:03:56.476, True, 0.663, 0.154040
2023/06/11 07:03:56.980, True, 0.663, 0.152132
2023/06/11 07:03:57.476, True, 0.674, 0.151217
2023/06/11 07:03:57.980, True, 0.663, 0.153735
2023/06/11 07:03:58.484, True, 0.664, 0.153048
2023/06/11 07:03:58.988, True, 0.663, 0.153887
2023/06/11 07:03:59.484, True, 0.673, 0.152667
2023/06/11 07:03:59.988, True, 0.663, 0.152590
2023/06/11 07:04:00.492, True, 0.663, 0.152819
2023/06/11 07:04:00.988, True, 0.337, 0.152514
2023/06/11 07:04:01.492, True, 0.663, 0.152209
2023/06/11 07:04:01.996, True, 0.663, 0.153582
2023/06/11 07:04:02.492, True, 0.674, 0.154040
2023/06/11 07:04:02.996, True, 0.663, 0.153964
2023/06/11 07:04:03.500, True, 0.663, 0.150607
2023/06/11 07:04:03.996, True, 0.674, 0.151369
2023/06/11 07:04:04.500, True, 0.663, 0.154421
2023/06/11 07:04:05.004, True, 0.663, 0.151827
2023/06/11 07:04:05.500, True, 0.674, 0.151598
2023/06/11 07:04:06.004, True, 0.663, 0.151598
2023/06/11 07:04:06.508, True, 0.332, 0.153429
2023/06/11 07:04:07.004, True, 0.675, 0.153506
2023/06/11 07:04:07.508, True, 0.663, 0.152895
2023/06/11 07:04:08.012, True, 0.664, 0.152132
2023/06/11 07:04:08.508, True, 0.674, 0.151675
2023/06/11 07:04:09.012, True, 0.663, 0.154040
2023/06/11 07:04:09.516, True, 0.663, 0.153124
2023/06/11 07:04:10.020, True, 0.332, 0.150683
2023/06/11 07:04:10.516, True, 0.674, 0.153964
2023/06/11 07:04:11.020, True, 0.663, 0.152895